DLH8NK EDDF-EDDM

Flight info

Callsign DLH8NK
Flight time 0h 38m
Altitude 23000
Route CINDY8S/18 CINDY Z74 HAREM T104 ROKIL ROKIL1B
Aircraft A20N/M-SDE2E3FGHIRWXY/LB1

Departure

Time 2026-05-07 16:28
Airport Frankfurt Main Airport (EDDF)

Arrival

Time 2026-05-07 17:06
Airport Munich Airport (EDDM)
Time Latitude Longitude Altitude Speed Heading
2026-05-07 15:52 50.04806 8.56899 361 ft 0 kts 295°
2026-05-07 16:08 50.04806 8.56902 361 ft 3 kts 295°
2026-05-07 16:08 50.04798 8.56927 362 ft 3 kts 295°
2026-05-07 16:08 50.04790 8.56952 363 ft 3 kts 294°
2026-05-07 16:08 50.04785 8.56978 363 ft 3 kts 272°
2026-05-07 16:09 50.04787 8.57006 362 ft 3 kts 243°
2026-05-07 16:09 50.04797 8.57029 368 ft 3 kts 220°
2026-05-07 16:09 50.04813 8.57047 362 ft 3 kts 205°
2026-05-07 16:09 50.04834 8.57062 365 ft 3 kts 204°
2026-05-07 16:10 50.04837 8.57064 364 ft 0 kts 204°
2026-05-07 16:12 50.04833 8.57062 365 ft 2 kts 204°
2026-05-07 16:12 50.04800 8.57039 364 ft 11 kts 204°
2026-05-07 16:12 50.04692 8.56962 367 ft 20 kts 205°
2026-05-07 16:12 50.04547 8.56891 363 ft 23 kts 192°
2026-05-07 16:13 50.04439 8.56777 361 ft 20 kts 249°
2026-05-07 16:13 50.04407 8.56644 364 ft 9 kts 250°
2026-05-07 16:13 50.04386 8.56556 362 ft 7 kts 249°
2026-05-07 16:13 50.04371 8.56494 364 ft 7 kts 250°
2026-05-07 16:14 50.04351 8.56407 365 ft 10 kts 249°
2026-05-07 16:14 50.04322 8.56290 365 ft 13 kts 249°
2026-05-07 16:14 50.04290 8.56160 363 ft 6 kts 250°
2026-05-07 16:14 50.04272 8.56083 361 ft 6 kts 250°
2026-05-07 16:15 50.04263 8.56044 363 ft 5 kts 250°
2026-05-07 16:15 50.04246 8.55972 363 ft 10 kts 250°
2026-05-07 16:15 50.04212 8.55828 362 ft 17 kts 250°
2026-05-07 16:15 50.04166 8.55634 365 ft 20 kts 249°
2026-05-07 16:16 50.04119 8.55436 368 ft 20 kts 250°
2026-05-07 16:16 50.04077 8.55262 365 ft 15 kts 249°
2026-05-07 16:16 50.04037 8.55094 365 ft 18 kts 250°
2026-05-07 16:16 50.03997 8.54928 366 ft 18 kts 249°
2026-05-07 16:17 50.03951 8.54736 363 ft 20 kts 249°
2026-05-07 16:17 50.03899 8.54521 362 ft 22 kts 252°
2026-05-07 16:17 50.03850 8.54346 364 ft 16 kts 234°
2026-05-07 16:17 50.03792 8.54189 365 ft 18 kts 250°
2026-05-07 16:18 50.03746 8.53996 366 ft 20 kts 249°
2026-05-07 16:18 50.03694 8.53781 360 ft 22 kts 250°
2026-05-07 16:18 50.03637 8.53550 360 ft 24 kts 248°
2026-05-07 16:18 50.03586 8.53342 364 ft 16 kts 250°
2026-05-07 16:19 50.03545 8.53168 366 ft 18 kts 250°
2026-05-07 16:19 50.03500 8.52975 362 ft 12 kts 250°
2026-05-07 16:19 50.03498 8.52969 364 ft 0 kts 250°
2026-05-07 16:21 50.03498 8.52968 364 ft 1 kts 250°
2026-05-07 16:22 50.03485 8.52914 363 ft 12 kts 249°
2026-05-07 16:22 50.03446 8.52782 366 ft 12 kts 246°
2026-05-07 16:22 50.03437 8.52742 367 ft 0 kts 250°
2026-05-07 16:25 50.03436 8.52740 362 ft 1 kts 250°
2026-05-07 16:25 50.03432 8.52720 365 ft 3 kts 250°
2026-05-07 16:25 50.03423 8.52680 363 ft 5 kts 250°
2026-05-07 16:25 50.03383 8.52601 363 ft 14 kts 209°
2026-05-07 16:26 50.03298 8.52594 364 ft 0 kts 178°
2026-05-07 16:27 50.03202 8.52597 362 ft 40 kts 179°
2026-05-07 16:27 50.02695 8.52599 363 ft 103 kts 180°
2026-05-07 16:27 50.01806 8.52605 404 ft 146 kts 180°
2026-05-07 16:28 50.00807 8.52635 911 ft 144 kts 181°
2026-05-07 16:28 49.99757 8.52659 1358 ft 155 kts 179°
2026-05-07 16:28 49.98643 8.52675 1873 ft 162 kts 179°
2026-05-07 16:28 49.97497 8.52765 2303 ft 175 kts 167°
2026-05-07 16:29 49.96379 8.53662 2693 ft 190 kts 135°
2026-05-07 16:29 49.95614 8.55412 3111 ft 208 kts 116°
2026-05-07 16:29 49.94890 8.57538 3482 ft 236 kts 117°
2026-05-07 16:29 49.94213 8.59876 4348 ft 241 kts 105°
2026-05-07 16:30 49.93965 8.62452 5404 ft 243 kts 91°
2026-05-07 16:30 49.93894 8.65155 6248 ft 257 kts 92°
2026-05-07 16:30 49.93759 8.68000 6927 ft 276 kts 101°
2026-05-07 16:30 49.92990 8.70780 7751 ft 286 kts 127°
2026-05-07 16:31 49.91540 8.72869 8738 ft 289 kts 145°
2026-05-07 16:31 49.89830 8.74601 9785 ft 293 kts 147°
2026-05-07 16:31 49.88274 8.76679 10538 ft 307 kts 131°
2026-05-07 16:31 49.87021 8.79503 10921 ft 332 kts 120°
2026-05-07 16:32 49.85826 8.82708 11044 ft 349 kts 120°
2026-05-07 16:32 49.84627 8.85993 11045 ft 347 kts 120°
2026-05-07 16:32 49.83463 8.89211 11045 ft 348 kts 120°
2026-05-07 16:32 49.82277 8.92489 11078 ft 349 kts 120°
2026-05-07 16:33 49.81079 8.95792 11523 ft 353 kts 120°
2026-05-07 16:33 49.79888 8.99069 12533 ft 353 kts 120°
2026-05-07 16:33 49.78670 9.02409 13447 ft 357 kts 119°
2026-05-07 16:33 49.77446 9.05763 14280 ft 362 kts 119°
2026-05-07 16:34 49.76326 9.09307 15011 ft 369 kts 111°
2026-05-07 16:34 49.75561 9.13065 15785 ft 373 kts 103°
2026-05-07 16:34 49.74822 9.16879 16520 ft 378 kts 112°
2026-05-07 16:34 49.73577 9.20515 17265 ft 382 kts 124°
2026-05-07 16:35 49.71915 9.23716 18017 ft 386 kts 133°
2026-05-07 16:35 49.70120 9.26864 18719 ft 390 kts 132°
2026-05-07 16:35 49.68318 9.30035 19419 ft 393 kts 132°
2026-05-07 16:35 49.66551 9.33152 20105 ft 396 kts 132°
2026-05-07 16:36 49.64717 9.36387 20790 ft 399 kts 132°
2026-05-07 16:36 49.62896 9.39600 21471 ft 402 kts 132°
2026-05-07 16:36 49.61039 9.42870 22146 ft 405 kts 132°
2026-05-07 16:36 49.59171 9.46156 22791 ft 409 kts 132°
2026-05-07 16:37 49.57287 9.49465 23313 ft 415 kts 133°
2026-05-07 16:37 49.55383 9.52805 23843 ft 420 kts 133°
2026-05-07 16:37 49.53442 9.56204 24421 ft 422 kts 133°
2026-05-07 16:37 49.51501 9.59598 24949 ft 425 kts 133°
2026-05-07 16:38 49.49557 9.62994 25462 ft 428 kts 133°
2026-05-07 16:38 49.47576 9.66450 25975 ft 430 kts 133°
2026-05-07 16:38 49.45583 9.69924 26476 ft 433 kts 133°
2026-05-07 16:38 49.43601 9.73372 26956 ft 436 kts 133°
2026-05-07 16:39 49.41590 9.76866 27433 ft 439 kts 133°
2026-05-07 16:39 49.39548 9.80411 27898 ft 442 kts 133°
2026-05-07 16:39 49.37526 9.83915 28330 ft 444 kts 133°
2026-05-07 16:39 49.35455 9.87493 28666 ft 450 kts 133°
2026-05-07 16:40 49.33363 9.91101 29096 ft 452 kts 133°
2026-05-07 16:40 49.31294 9.94665 29500 ft 454 kts 133°
2026-05-07 16:40 49.29180 9.98303 29906 ft 456 kts 133°
2026-05-07 16:40 49.27051 10.01959 30045 ft 458 kts 133°
2026-05-07 16:41 49.24949 10.05564 30049 ft 460 kts 133°
2026-05-07 16:41 49.20621 10.12972 30048 ft 466 kts 133°
2026-05-07 16:42 49.16312 10.20342 30058 ft 465 kts 133°
2026-05-07 16:42 49.11956 10.27682 30055 ft 469 kts 134°
2026-05-07 16:43 49.07462 10.34861 30072 ft 468 kts 135°
2026-05-07 16:43 49.02952 10.42054 30072 ft 467 kts 135°
2026-05-07 16:44 48.98493 10.49179 30074 ft 466 kts 135°
2026-05-07 16:44 48.94002 10.56332 30061 ft 466 kts 135°
2026-05-07 16:45 48.89510 10.63468 30067 ft 473 kts 135°
2026-05-07 16:45 48.84976 10.70659 30061 ft 472 kts 135°
2026-05-07 16:46 48.80459 10.77801 29845 ft 472 kts 135°
2026-05-07 16:46 48.78182 10.81384 29537 ft 469 kts 135°
2026-05-07 16:46 48.75917 10.84937 29247 ft 469 kts 135°
2026-05-07 16:46 48.73634 10.88510 28944 ft 469 kts 135°
2026-05-07 16:47 48.71394 10.92013 28666 ft 467 kts 135°
2026-05-07 16:47 48.69894 10.94357 28488 ft 466 kts 135°
2026-05-07 16:47 48.66955 10.99107 27951 ft 467 kts 129°
2026-05-07 16:47 48.65713 11.01793 27420 ft 468 kts 121°
2026-05-07 16:48 48.64296 11.06274 26295 ft 471 kts 110°
2026-05-07 16:48 48.63502 11.11063 25074 ft 477 kts 97°
2026-05-07 16:48 48.63202 11.16039 24384 ft 471 kts 93°
2026-05-07 16:48 48.62947 11.20937 23784 ft 464 kts 95°
2026-05-07 16:49 48.62593 11.25775 23110 ft 458 kts 97°
2026-05-07 16:49 48.62155 11.30452 22502 ft 451 kts 98°
2026-05-07 16:49 48.61658 11.35114 21890 ft 445 kts 99°
2026-05-07 16:49 48.61137 11.39709 21277 ft 439 kts 99°
2026-05-07 16:50 48.60617 11.44186 20678 ft 433 kts 100°
2026-05-07 16:50 48.60100 11.48607 20086 ft 427 kts 100°
2026-05-07 16:50 48.59581 11.53036 19492 ft 422 kts 100°
2026-05-07 16:50 48.59077 11.57334 18910 ft 418 kts 100°
2026-05-07 16:51 48.58569 11.61662 18309 ft 414 kts 100°
2026-05-07 16:51 48.58073 11.65874 17704 ft 410 kts 100°
2026-05-07 16:51 48.57574 11.70096 17124 ft 404 kts 100°
2026-05-07 16:51 48.57085 11.74233 16559 ft 400 kts 101°
2026-05-07 16:52 48.56595 11.78353 15986 ft 396 kts 101°
2026-05-07 16:52 48.56105 11.82463 15417 ft 392 kts 101°
2026-05-07 16:52 48.55627 11.86459 14869 ft 389 kts 101°
2026-05-07 16:52 48.55145 11.90480 14306 ft 386 kts 101°
2026-05-07 16:53 48.54670 11.94422 13750 ft 383 kts 101°
2026-05-07 16:53 48.54195 11.98357 13183 ft 379 kts 101°
2026-05-07 16:53 48.53722 12.02265 12762 ft 370 kts 101°
2026-05-07 16:53 48.53266 12.06013 12587 ft 355 kts 101°
2026-05-07 16:54 48.52833 12.09576 12457 ft 342 kts 101°
2026-05-07 16:54 48.52407 12.13060 12323 ft 328 kts 101°
2026-05-07 16:54 48.52005 12.16343 12154 ft 317 kts 102°
2026-05-07 16:54 48.51590 12.19610 11796 ft 314 kts 102°
2026-05-07 16:55 48.51184 12.22833 11440 ft 312 kts 101°
2026-05-07 16:55 48.50816 12.26030 11061 ft 311 kts 100°
2026-05-07 16:55 48.50474 12.29237 10686 ft 309 kts 99°
2026-05-07 16:55 48.50191 12.32454 10279 ft 308 kts 94°
2026-05-07 16:56 48.50245 12.35705 9819 ft 309 kts 84°
2026-05-07 16:56 48.50473 12.38879 9399 ft 307 kts 84°
2026-05-07 16:56 48.50805 12.45256 8575 ft 302 kts 94°
2026-05-07 16:57 48.50432 12.48352 8194 ft 297 kts 110°
2026-05-07 16:57 48.49395 12.50967 7854 ft 287 kts 137°
2026-05-07 16:57 48.47777 12.52537 7601 ft 277 kts 165°
2026-05-07 16:57 48.45864 12.52839 7395 ft 277 kts 192°
2026-05-07 16:58 48.44134 12.51761 7206 ft 270 kts 220°
2026-05-07 16:58 48.42964 12.49628 7024 ft 263 kts 246°
2026-05-07 16:58 48.42513 12.46975 6854 ft 259 kts 263°
2026-05-07 16:58 48.42272 12.44329 6717 ft 257 kts 262°
2026-05-07 16:59 48.42006 12.41671 6569 ft 256 kts 261°
2026-05-07 16:59 48.41721 12.38983 6418 ft 260 kts 262°
2026-05-07 16:59 48.41443 12.36282 6261 ft 263 kts 262°
2026-05-07 16:59 48.41167 12.33576 6108 ft 264 kts 262°
2026-05-07 17:00 48.40871 12.30831 5944 ft 263 kts 260°
2026-05-07 17:00 48.40528 12.28170 5748 ft 260 kts 260°
2026-05-07 17:00 48.40151 12.25500 5529 ft 260 kts 258°
2026-05-07 17:00 48.39797 12.22865 5266 ft 255 kts 264°
2026-05-07 17:01 48.39655 12.20245 5052 ft 247 kts 266°
2026-05-07 17:01 48.39480 12.17713 4999 ft 234 kts 265°
2026-05-07 17:01 48.39308 12.15369 4988 ft 220 kts 265°
2026-05-07 17:01 48.39125 12.13133 4979 ft 211 kts 264°
2026-05-07 17:02 48.38923 12.10987 4976 ft 207 kts 264°
2026-05-07 17:02 48.38764 12.08852 4964 ft 202 kts 265°
2026-05-07 17:02 48.38601 12.06742 4851 ft 203 kts 264°
2026-05-07 17:02 48.38432 12.04602 4585 ft 209 kts 264°
2026-05-07 17:03 48.38259 12.02426 4267 ft 206 kts 265°
2026-05-07 17:03 48.38102 12.00345 3955 ft 198 kts 265°
2026-05-07 17:03 48.37957 11.98359 3793 ft 185 kts 265°
2026-05-07 17:03 48.37809 11.96477 3567 ft 177 kts 265°
2026-05-07 17:04 48.37653 11.94650 3327 ft 175 kts 264°
2026-05-07 17:04 48.37512 11.92898 3070 ft 161 kts 266°
2026-05-07 17:04 48.37405 11.91311 2844 ft 143 kts 265°
2026-05-07 17:04 48.37302 11.89866 2579 ft 137 kts 266°
2026-05-07 17:05 48.37180 11.88458 2359 ft 137 kts 267°
2026-05-07 17:05 48.37087 11.86995 2165 ft 140 kts 266°
2026-05-07 17:05 48.36941 11.85540 1994 ft 144 kts 266°
2026-05-07 17:05 48.36826 11.84052 1803 ft 141 kts 268°
2026-05-07 17:06 48.36720 11.82577 1588 ft 143 kts 268°
2026-05-07 17:06 48.36611 11.81123 1468 ft 133 kts 267°
2026-05-07 17:06 48.36540 11.80122 1464 ft 60 kts 264°
2026-05-07 17:06 48.36432 11.79666 1460 ft 31 kts 234°
2026-05-07 17:07 48.36335 11.79466 1462 ft 19 kts 233°
2026-05-07 17:07 48.36278 11.79354 1463 ft 15 kts 229°
2026-05-07 17:07 48.36181 11.79302 1464 ft 17 kts 174°
2026-05-07 17:07 48.36117 11.79313 1461 ft 9 kts 174°
2026-05-07 17:08 48.36039 11.79327 1461 ft 13 kts 172°
2026-05-07 17:08 48.35980 11.79338 1459 ft 6 kts 174°
2026-05-07 17:08 48.35953 11.79342 1465 ft 0 kts 174°
2026-05-07 17:09 48.35948 11.79343 1459 ft 4 kts 174°
2026-05-07 17:09 48.35912 11.79362 1461 ft 7 kts 143°
2026-05-07 17:10 48.35897 11.79447 1467 ft 10 kts 92°
2026-05-07 17:10 48.35846 11.79523 1464 ft 13 kts 173°
2026-05-07 17:10 48.35747 11.79542 1466 ft 16 kts 173°
2026-05-07 17:10 48.35678 11.79554 1463 ft 6 kts 174°
2026-05-07 17:11 48.35640 11.79569 1458 ft 3 kts 128°
2026-05-07 17:11 48.35644 11.79615 1463 ft 7 kts 79°
2026-05-07 17:11 48.35654 11.79699 1465 ft 1 kts 81°
2026-05-07 17:11 48.35656 11.79719 1465 ft 0 kts 81°